Zurück zum Katalog

STARLINK-3783

AktivKommunikationVLEO
NORAD 52282·PAYLOAD·🇺🇸 United States

Gestartet Apr 21, 2022 von Cape Canaveral Space Force Station

Loading…

Nächste Überflüge (nächste 24 Stunden)

TLE

AktuellSource: CelesTrak SupGP

Epoche: Sep 14, 2026, 21:06 UTC

1 52282C 22041X   26257.87965278 -.00026209  00000+0 -79551-3 0  2579
2 52282  53.1588 318.0662 0001234  85.5388 125.5817 15.33553907    15

Verfolge STARLINK-3783 in Echtzeit mit AllMySat

Download on the App Store